Wind_Speed
21 7 9 12 11 15 3 7 8 6 18 14 12 9 11 24 22 27 28 37 36 37 33 33 30 30 23 22 21 25 25 17 14 23 20 18 13 11 7 5 6 3 4 3
10 15 15 13 15 17 12 10 4 6 12 7 19 12 17 18 24 31 30 34 36 36 32 36 34 32 33 28 24 27 24 22 16 21 18 12 10 6 8 8 3 3 3 5
17 18 17 18 16 18 16 9 10 11 6 14 14 14 15 20 21 27 29 31 36 40 37 40 36 37 36 32 30 32 26 24 20 20 19 12 11 13 10 7 6 2 5 8
13 18 19 21 19 15 16 14 14 18 8 13 11 4 21 20 18 20 29 30 39 39 42 39 38 34 35 34 32 28 32 28 22 22 20 19 16 14 9 9 5 2 6 7
16 20 17 24 21 18 17 19 18 18 14 13 13 6 11 22 21 22 26 33 30 40 44 44 46 41 35 34 35 29 32 31 27 24 23 22 20 16 4 7 6 6 4 3
18 27 19 22 18 22 17 18 17 14 10 9 10 6 5 21 28 20 24 34 38 35 43 44 46 46 40 35 37 32 29 32 29 29 24 21 25 20 13 10 10 7 3 7
15 20 21 20 20 19 19 12 8 5 5 6 10 5 3 6 17 23 18 33 41 41 40 44 45 47 44 36 40 36 31 30 32 30 28 24 24 23 18 17 16 10 6 5
10 15 20 13 12 19 16 13 7 7 6 8 5 1 1 12 27 37 43 37 41 44 46 46 51 48 47 45 42 39 34 30 32 32 34 29 24 27 24 20 17 11 8 8
7 16 15 19 20 15 19 13 11 8 15 5 4 2 5 3 9 18 17 22 35 46 48 45 52 47 43 51 43 41 37 33 31 33 33 33 30 27 25 23 19 15 13 12
18 14 14 23 16 22 11 11 8 7 11 9 3 5 6 11 15 12 6 20 25 47 46 47 53 50 47 50 47 44 40 35 32 32 33 33 31 29 27 25 22 19 14 15
17 15 21 12 10 16 15 13 10 4 6 6 4 6 8 12 10 11 12 25 36 48 49 47 52 50 50 49 47 47 43 38 35 31 32 33 33 31 29 26 23 20 17 17
5 3 13 21 20 20 19 11 13 9 8 5 4 5 4 10 3 4 7 15 45 47 48 48 46 48 51 50 46 45 42 40 37 34 31 33 33 32 30 29 25 23 23 21
7 5 3 7 11 16 10 19 10 5 4 9 3 5 2 6 6 4 5 30 27 42 44 46 45 51 51 51 48 46 44 41 38 35 34 32 33 32 31 29 27 26 26 24
5 4 4 6 8 5 8 18 17 11 9 8 10 5 7 11 9 6 15 30 43 41 45 46 46 51 52 49 45 46 46 43 40 36 33 34 35 33 31 27 27 27 27 25
3 5 7 16 17 15 15 16 22 13 14 11 12 8 10 10 14 10 4 7 31 36 43 45 47 50 51 48 45 46 45 44 42 39 36 36 35 33 30 28 28 28 28 25
14 5 12 15 13 14 18 17 16 21 17 8 12 3 6 10 4 11 18 13 17 38 43 49 48 48 52 49 47 47 45 45 43 41 39 36 35 35 33 30 30 30 29 27
7 9 8 5 8 10 9 7 11 12 17 7 13 9 13 6 8 17 30 34 22 37 44 48 49 48 50 49 46 48 47 44 44 41 39 37 37 37 35 32 31 33 31 30
8 7 4 5 7 4 7 8 12 12 16 13 5 15 18 17 25 34 41 39 14 33 39 46 47 46 47 46 45 45 46 45 45 43 41 38 37 37 36 35 36 35 34 34
6 4 5 4 4 11 16 9 7 7 7 6 10 11 9 17 14 3 13 15 19 36 35 40 45 44 44 45 46 45 44 45 44 45 43 41 39 38 38 39 39 38 37 38
8 6 3 4 4 4 7 12 23 8 3 19 19 7 14 19 6 11 16 33 13 32 34 37 40 41 41 43 43 44 44 45 47 47 46 44 42 41 42 41 41 39 39 41
5 5 6 9 5 8 13 17 19 4 5 18 21 23 14 5 11 27 22 15 18 10 27 38 40 43 41 39 40 42 45 48 48 47 46 46 45 45 45 43 42 40 40 42
8 5 5 5 4 7 20 11 6 6 14 20 25 29 26 13 11 17 31 12 5 12 18 39 42 43 40 40 39 39 42 42 43 44 46 46 47 47 46 44 43 41 41 44
11 10 7 6 5 5 23 18 18 19 18 24 28 29 28 26 23 9 18 12 17 11 15 22 44 42 42 41 39 39 33 37 41 43 44 45 46 47 47 47 45 43 44 46
8 8 8 9 10 9 20 23 22 19 18 20 21 25 27 23 22 18 6 15 12 6 10 9 4 42 43 41 40 36 34 36 38 41 43 44 46 47 46 48 47 46 48 50
11 15 10 3 16 18 28 26 21 19 15 18 15 17 23 24 21 23 15 6 10 10 10 9 7 5 28 37 35 33 39 41 41 42 43 44 44 46 48 49 50 52 51 51
5 5 5 3 15 11 20 25 30 28 16 18 17 19 19 19 18 18 17 11 7 10 17 16 12 11 9 11 26 25 28 32 36 38 40 43 45 47 49 50 52 52 51 49
Wind_Direction
245 244 228 236 246 260 142 123 148 206 287 312 281 233 211 189 172 170 187 175 177 178 188 187 186 180 185 179 181 168 184 195 183 169 157 149 147 133 154 230 298 305 88 93
248 243 244 232 251 263 272 134 218 296 257 253 273 263 186 192 186 178 189 177 175 175 180 188 186 189 193 190 190 174 185 195 192 172 155 157 168 224 196 225 269 304 25 32
220 230 239 247 241 254 264 160 170 212 112 304 307 292 189 208 182 181 192 183 179 181 178 182 186 189 188 191 194 187 190 194 193 170 166 190 195 195 189 219 286 159 33 24
238 239 232 238 240 236 257 198 200 235 168 227 149 228 193 187 186 178 186 201 184 184 187 182 186 184 189 194 200 200 198 203 193 181 186 194 198 193 207 211 224 278 358 33
238 230 230 239 243 235 245 260 232 236 206 256 240 212 213 176 186 181 179 193 195 188 190 189 191 191 193 199 201 205 203 205 200 193 192 199 200 198 175 198 208 281 320 351
237 252 228 239 244 246 252 247 260 268 250 233 253 191 203 180 192 171 181 188 197 192 191 189 197 193 191 201 204 204 205 210 203 197 195 196 200 188 187 204 225 240 261 293
244 248 256 248 236 247 242 248 253 289 281 219 245 278 319 122 152 143 177 200 193 194 184 188 189 193 194 194 204 204 207 208 210 200 197 199 192 188 194 207 222 228 223 289
221 241 243 238 218 227 242 228 208 227 232 243 70 211 223 139 145 166 180 182 194 190 192 187 189 194 195 196 202 206 208 211 211 208 200 203 201 196 200 205 217 208 202 258
234 228 246 238 241 233 238 243 220 221 258 280 124 350 4 204 166 202 215 203 187 192 190 191 189 197 196 197 203 208 211 214 213 212 209 209 212 210 211 217 225 234 224 237
237 265 249 244 236 243 223 222 246 233 237 252 209 188 197 195 187 226 227 246 222 189 188 188 189 195 197 196 201 207 215 217 217 214 216 214 214 218 220 221 227 227 227 230
219 228 259 270 258 230 237 239 229 215 177 215 175 253 206 189 226 179 213 248 208 182 185 183 188 193 198 194 198 205 210 214 218 219 217 218 221 221 222 224 225 228 226 232
10 295 231 249 259 272 233 226 214 222 273 236 205 256 121 146 205 267 134 38 192 184 181 182 181 182 185 189 192 199 205 212 219 221 220 221 222 223 222 221 222 227 234 237
348 323 284 294 275 260 262 227 220 201 195 246 183 240 190 111 65 49 42 336 212 181 174 177 179 178 183 189 194 197 204 209 217 221 221 221 222 222 223 219 222 227 234 241
318 240 275 272 271 285 303 218 220 204 230 247 252 217 213 147 125 14 7 323 184 176 170 174 179 182 187 195 198 200 203 211 217 218 218 221 220 220 221 218 218 224 232 239
318 260 282 283 281 300 290 291 209 217 221 223 251 170 214 179 150 153 78 316 172 165 169 176 180 184 190 195 197 199 203 206 212 217 219 223 221 221 221 218 217 222 231 241
345 316 325 299 295 297 298 297 304 217 229 239 249 58 131 108 164 104 55 317 219 167 172 180 185 188 190 194 197 200 202 204 210 216 221 222 223 223 222 220 220 224 229 239
326 350 337 276 350 321 297 258 277 277 213 203 241 169 161 170 145 111 71 271 264 174 177 183 189 193 195 196 198 201 203 206 211 218 222 223 223 226 225 224 224 226 230 238
306 328 290 297 348 265 254 305 288 290 219 217 244 152 172 170 174 171 163 208 257 188 184 189 194 195 200 201 203 204 207 208 212 219 224 224 224 226 228 228 228 228 231 237
249 301 310 307 299 304 303 293 321 335 338 279 205 163 171 147 120 185 204 264 274 210 195 197 201 201 202 205 205 206 208 210 214 220 224 226 226 228 229 230 231 231 233 237
243 235 179 335 319 271 272 320 325 354 72 356 9 185 150 156 145 169 208 244 226 205 200 200 204 205 207 209 209 208 210 214 217 221 225 228 229 230 232 234 234 235 236 241
223 241 235 264 255 282 332 344 322 48 322 337 6 13 165 157 186 186 170 155 328 288 225 207 206 209 212 212 210 211 214 220 223 223 225 229 232 234 236 238 239 236 236 239
221 212 195 243 249 269 350 27 58 312 1 4 13 17 23 40 188 159 155 178 306 19 270 208 205 212 214 213 212 214 218 226 224 225 228 230 234 238 240 241 241 240 238 237
241 223 198 209 213 59 45 51 31 12 7 24 17 13 19 30 39 102 121 144 174 327 352 213 207 212 216 214 215 217 229 226 227 227 228 231 235 238 239 241 239 238 237 237
315 240 224 232 6 35 32 28 20 6 21 22 17 10 11 7 22 32 90 132 177 263 315 357 269 216 214 219 221 232 237 230 230 233 234 235 236 238 239 241 241 239 239 237
282 316 326 200 18 343 10 2 360 348 30 32 11 11 13 8 19 27 7 27 233 334 328 323 328 31 225 225 230 237 240 239 237 237 238 239 241 241 241 241 243 243 245 246
337 349 5 327 343 331 320 356 6 5 43 50 25 7 4 2 357 8 27 38 357 315 324 322 301 288 274 265 243 242 243 242 243 243 242 241 242 242 239 238 238 238 244 248
Height
1476 1485 1492 1485 1481 1478 1482 1488 1496 1489 1483 1491 1491 1486 1484 1481 1487 1491 1497 1499 1505 1511 1517 1524 1531 1535 1538 1542 1547 1551 1554 1558 1562 1565 1566 1567 1570 1573 1575 1575 1575 1575 1575 1574
1479 1483 1473 1471 1472 1473 1476 1491 1499 1479 1476 1491 1479 1478 1477 1476 1475 1482 1492 1497 1500 1508 1514 1520 1527 1531 1535 1538 1545 1550 1553 1556 1560 1564 1567 1568 1569 1572 1574 1574 1575 1574 1574 1574
1473 1468 1465 1467 1470 1473 1472 1484 1485 1489 1480 1486 1481 1486 1487 1476 1479 1485 1490 1496 1502 1503 1509 1515 1522 1526 1532 1535 1541 1547 1550 1554 1558 1562 1565 1567 1570 1571 1573 1574 1575 1574 1574 1574
1462 1459 1460 1462 1465 1465 1478 1461 1457 1462 1486 1504 1466 1504 1477 1473 1476 1482 1488 1492 1496 1501 1506 1513 1518 1522 1527 1531 1537 1544 1548 1552 1556 1560 1563 1565 1568 1571 1573 1574 1574 1574 1575 1574
1458 1456 1456 1459 1456 1454 1462 1448 1454 1456 1468 1470 1460 1481 1461 1463 1476 1474 1480 1489 1493 1497 1501 1507 1512 1518 1524 1529 1533 1539 1544 1548 1553 1557 1560 1563 1566 1570 1571 1571 1572 1573 1574 1574
1446 1444 1445 1446 1445 1445 1445 1449 1449 1452 1460 1485 1465 1467 1464 1462 1456 1470 1477 1484 1488 1493 1498 1503 1509 1515 1521 1524 1530 1535 1539 1543 1549 1554 1557 1560 1564 1567 1569 1570 1571 1572 1573 1572
1446 1443 1436 1438 1446 1440 1442 1458 1486 1497 1489 1496 1450 1462 1469 1442 1450 1457 1468 1478 1481 1485 1491 1499 1504 1509 1515 1520 1524 1530 1535 1539 1544 1550 1553 1556 1560 1564 1566 1567 1569 1570 1571 1570
1459 1464 1436 1428 1435 1444 1442 1451 1479 1508 1501 1480 1446 1477 1458 1441 1453 1455 1452 1454 1472 1475 1481 1489 1495 1501 1508 1516 1519 1524 1529 1534 1540 1545 1549 1553 1557 1561 1562 1565 1566 1568 1569 1568
1456 1447 1427 1421 1422 1428 1437 1449 1439 1465 1454 1471 1470 1464 1451 1447 1445 1443 1445 1451 1455 1465 1471 1480 1487 1494 1501 1509 1513 1517 1523 1529 1535 1540 1545 1549 1552 1556 1560 1562 1563 1565 1567 1568
1432 1451 1425 1417 1417 1414 1424 1425 1455 1449 1483 1492 1472 1470 1464 1447 1451 1448 1443 1450 1450 1456 1464 1472 1479 1487 1494 1502 1509 1514 1518 1524 1530 1535 1539 1544 1548 1552 1555 1558 1560 1562 1564 1566
1421 1431 1429 1423 1422 1425 1424 1430 1430 1437 1452 1477 1491 1477 1427 1431 1430 1440 1441 1431 1442 1445 1453 1462 1471 1479 1487 1497 1503 1508 1513 1519 1524 1529 1534 1539 1542 1547 1551 1553 1556 1558 1560 1560
1433 1430 1436 1423 1410 1409 1408 1419 1422 1447 1460 1448 1456 1460 1415 1417 1423 1421 1432 1427 1431 1437 1444 1455 1464 1473 1481 1490 1497 1502 1507 1512 1518 1524 1529 1533 1537 1541 1545 1548 1551 1554 1554 1556
1439 1444 1447 1434 1419 1407 1417 1403 1409 1417 1430 1445 1463 1454 1417 1415 1418 1416 1418 1424 1438 1437 1442 1452 1460 1467 1475 1482 1489 1496 1500 1506 1512 1518 1523 1527 1530 1534 1538 1543 1547 1548 1549 1550
1436 1442 1448 1454 1433 1417 1417 1402 1402 1413 1435 1437 1432 1434 1418 1412 1413 1415 1413 1420 1423 1434 1437 1447 1454 1461 1469 1475 1482 1488 1495 1500 1506 1512 1517 1520 1524 1528 1532 1538 1541 1543 1544 1545
1437 1445 1438 1426 1419 1415 1413 1409 1396 1409 1412 1429 1420 1428 1412 1402 1401 1413 1414 1425 1429 1430 1437 1445 1450 1456 1464 1470 1477 1483 1490 1494 1499 1506 1510 1513 1518 1523 1528 1532 1535 1537 1538 1540
1446 1450 1440 1429 1415 1413 1413 1404 1401 1391 1398 1405 1406 1416 1403 1404 1411 1415 1425 1436 1436 1425 1433 1441 1447 1452 1459 1464 1470 1477 1483 1488 1493 1498 1503 1509 1513 1517 1521 1526 1528 1531 1534 1535
1460 1460 1456 1442 1421 1418 1425 1407 1403 1397 1387 1396 1411 1404 1402 1407 1409 1418 1418 1438 1438 1426 1430 1437 1442 1447 1453 1459 1465 1471 1477 1484 1488 1492 1498 1503 1507 1511 1514 1519 1523 1524 1527 1529
1467 1467 1459 1451 1434 1448 1408 1392 1390 1393 1383 1382 1388 1393 1395 1394 1398 1408 1412 1424 1433 1429 1427 1433 1439 1444 1450 1457 1462 1469 1474 1479 1484 1487 1492 1496 1501 1505 1508 1512 1515 1518 1520 1522
1462 1466 1469 1462 1448 1425 1403 1393 1395 1399 1396 1382 1381 1388 1392 1390 1394 1402 1405 1416 1422 1427 1425 1430 1436 1441 1447 1452 1458 1464 1470 1474 1478 1481 1485 1489 1493 1497 1501 1503 1506 1510 1513 1515
1460 1460 1472 1468 1466 1445 1407 1390 1388 1387 1417 1401 1393 1384 1386 1394 1408 1410 1411 1409 1419 1423 1422 1427 1434 1439 1443 1448 1455 1460 1465 1469 1471 1474 1478 1483 1487 1490 1492 1495 1499 1503 1506 1507
1462 1464 1468 1466 1463 1434 1406 1395 1387 1413 1436 1409 1400 1391 1388 1390 1389 1392 1401 1407 1415 1419 1423 1423 1429 1432 1436 1443 1448 1453 1458 1458 1461 1469 1473 1477 1480 1482 1485 1489 1493 1498 1500 1502
1459 1464 1465 1461 1456 1451 1410 1403 1420 1424 1415 1412 1407 1399 1397 1391 1392 1390 1391 1403 1415 1413 1417 1421 1424 1428 1431 1437 1441 1445 1448 1446 1458 1463 1467 1470 1472 1475 1480 1483 1487 1491 1494 1494
1454 1444 1449 1445 1441 1428 1422 1421 1422 1419 1415 1413 1410 1406 1404 1402 1400 1401 1399 1403 1412 1416 1420 1421 1415 1419 1425 1430 1434 1437 1436 1445 1449 1454 1458 1461 1465 1468 1472 1474 1479 1483 1484 1485
1444 1435 1436 1438 1438 1429 1427 1424 1423 1420 1418 1416 1413 1410 1407 1406 1405 1405 1406 1409 1413 1421 1419 1418 1420 1421 1420 1424 1428 1430 1433 1439 1444 1447 1451 1455 1457 1460 1465 1466 1468 1471 1472 1474
1467 1450 1447 1434 1434 1430 1428 1427 1425 1423 1419 1418 1415 1414 1413 1409 1407 1405 1405 1405 1411 1414 1416 1416 1416 1420 1422 1422 1424 1427 1430 1433 1436 1440 1443 1446 1448 1451 1454 1456 1458 1457 1458 1461
1466 1463 1458 1455 1451 1451 1441 1435 1428 1424 1421 1419 1419 1414 1413 1414 1410 1407 1406 1407 1410 1414 1410 1412 1414 1416 1418 1421 1422 1423 1425 1427 1430 1432 1435 1437 1439 1441 1444 1446 1446 1447 1450 1453